Weather History for Grants-Milan, NM

Change the Weather History Date:

Wednesday, January 15, 2014

  Actual Average Record
Temperature  
Mean Temperature 30 °F -  
Max Temperature 54 °F 45 °F 64 °F (2000)
Min Temperature 7 °F 14 °F -15 °F (1963)
Degree Days  
Heating Degree Days 34    
Moisture  
Dew Point 7 °F    
Average Humidity 44    
Maximum Humidity 76    
Minimum Humidity 15    
Precipitation  
Precipitation 0.00 in - - ()
Sea Level Pressure  
Sea Level Pressure 30.37 in    
Wind  
Wind Speed 7 mph (NW)    
Max Wind Speed 18 mph    
Max Gust Speed 25 mph    
Visibility 10 miles    
Events      
Averages and records for this station are not official NWS values.
T = Trace of Precipitation, MM = Missing Value Source: NWS Daily Summary

Daily Weather History Graph

Daily Weather History Graph

Search for Another Location

Airport:

Trip Planner

Search our weather history database for the weather conditions in past years. The results will help you decide how hot, cold, wet, or windy it might be!

Date:

Astronomy

Jan. 15, 2014 Rise Set
Actual Time 7:19 AM MST 5:22 PM MST
Civil Twilight 6:51 AM MST 5:50 PM MST
Nautical Twilight 6:20 AM MST 6:21 PM MST
Astronomical Twilight 5:50 AM MST 6:52 PM MST
Moon 5:21 PM MST (1/15) 6:39 AM MST (1/15)
Length of Visible Light 10h 58m
Length of Day
10h 03m
Full, 100% of the Moon is Illuminated
Jan 15
Full
Jan 15
Full
Jan 23
Last Quarter
Jan 30
New
Feb 6
First Quarter

Hourly Weather History & Observations

Time (MST) Temp. Windchill Dew Point Humidity Pressure Visibility Wind Dir Wind Speed Gust Speed Precip Events Conditions
12:15 AM 16.5 °F - 1.9 °F 53% 30.46 in 10.0 mi Calm Calm - N/A   Clear
12:35 AM 13.8 °F 1.8 °F 1.2 °F 57% 30.46 in 10.0 mi NW 9.2 mph - N/A   Clear
12:55 AM 16.2 °F 4.7 °F 1.6 °F 53% 30.46 in 10.0 mi North 9.2 mph - N/A   Clear
1:15 AM 14.5 °F 2.7 °F 1.8 °F 57% 30.46 in 10.0 mi NNW 9.2 mph - N/A   Clear
1:35 AM 19.0 °F 7.5 °F 3.2 °F 50% 30.46 in 10.0 mi WNW 10.4 mph - N/A   Clear
1:55 AM 14.9 °F 6.1 °F 2.3 °F 57% 30.46 in 10.0 mi NW 5.8 mph - N/A   Clear
2:15 AM 18.1 °F 7.1 °F 4.3 °F 55% 30.46 in 10.0 mi NW 9.2 mph - N/A   Clear
2:35 AM 19.2 °F 9.3 °F 5.4 °F 55% 30.47 in 10.0 mi WNW 8.1 mph - N/A   Clear
2:55 AM 18.3 °F 11.5 °F 4.8 °F 56% 30.46 in 10.0 mi NW 4.6 mph - N/A   Clear
3:15 AM 16.5 °F 8.1 °F 4.3 °F 59% 30.44 in 10.0 mi NW 5.8 mph - N/A   Clear
3:35 AM 14.7 °F 9.0 °F 5.0 °F 65% 30.43 in 10.0 mi WNW 3.5 mph - N/A   Clear
3:55 AM 13.6 °F 7.7 °F 4.1 °F 66% 30.43 in 10.0 mi NW 3.5 mph - N/A   Clear
4:15 AM 13.1 °F 0.9 °F 4.1 °F 67% 30.44 in 10.0 mi NW 9.2 mph - N/A   Clear
4:35 AM 16.9 °F 4.8 °F 4.8 °F 59% 30.44 in 10.0 mi WNW 10.4 mph - N/A   Clear
4:55 AM 17.6 °F 5.7 °F 5.9 °F 60% 30.44 in 10.0 mi West 10.4 mph - N/A   Clear
5:15 AM 15.6 °F 10.0 °F 4.1 °F 60% 30.45 in 10.0 mi NNE 3.5 mph - N/A   Clear
5:35 AM 14.7 °F - 3.9 °F 62% 30.45 in 10.0 mi Calm Calm - N/A   Clear
5:55 AM 10.4 °F - 2.5 °F 70% 30.46 in 10.0 mi Calm Calm - N/A   Clear
6:15 AM 9.1 °F - 2.3 °F 74% 30.46 in 10.0 mi Calm Calm - N/A   Clear
6:35 AM 11.3 °F 5.1 °F 3.0 °F 69% 30.46 in 10.0 mi East 3.5 mph - N/A   Clear
6:55 AM 10.4 °F - 3.2 °F 73% 30.46 in 10.0 mi Calm Calm - N/A   Clear
7:15 AM 7.2 °F -4.3 °F 1.0 °F 76% 30.46 in 10.0 mi NNW 6.9 mph - N/A   Clear
7:35 AM 9.0 °F 0.6 °F 2.5 °F 75% 30.46 in 10.0 mi NW 4.6 mph - N/A   Clear
7:55 AM 14.0 °F 6.5 °F 5.9 °F 70% 30.46 in 10.0 mi NNW 4.6 mph - N/A   Clear
8:15 AM 15.8 °F 8.6 °F 5.2 °F 63% 30.46 in 10.0 mi NW 4.6 mph - N/A   Clear
8:35 AM 19.2 °F 12.5 °F 7.0 °F 59% 30.46 in 10.0 mi NW 4.6 mph - N/A   Clear
8:55 AM 21.4 °F 12.8 °F 7.5 °F 55% 30.46 in 10.0 mi NW 6.9 mph - N/A   Clear
9:15 AM 25.2 °F 18.3 °F 8.8 °F 50% 30.46 in 10.0 mi NW 5.8 mph - N/A   Clear
9:35 AM 28.2 °F 24.4 °F 9.3 °F 45% 30.46 in 10.0 mi NW 3.5 mph - N/A   Clear
9:55 AM 30.2 °F 24.3 °F 9.5 °F 42% 30.46 in 10.0 mi NW 5.8 mph - N/A   Clear
10:15 AM 32.7 °F 27.3 °F 10.0 °F 39% 30.46 in 10.0 mi NW 5.8 mph - N/A   Clear
10:35 AM 35.2 °F 29.5 °F 10.4 °F 36% 30.44 in 10.0 mi NNW 6.9 mph - N/A   Clear
10:55 AM 37.2 °F 31.9 °F 11.1 °F 34% 30.44 in 10.0 mi NW 6.9 mph - N/A   Clear
11:15 AM 39.0 °F 35.7 °F 11.5 °F 32% 30.42 in 10.0 mi West 4.6 mph - N/A   Clear
11:35 AM 42.6 °F 39.0 °F 12.6 °F 30% 30.40 in 10.0 mi WNW 5.8 mph - N/A   Clear
11:55 AM 45.7 °F 41.5 °F 13.1 °F 27% 30.38 in 10.0 mi NNW 8.1 mph - N/A   Clear
12:15 PM 49.8 °F - 12.9 °F 23% 30.36 in 10.0 mi North 12.7 mph 16.1 mph N/A   Clear
12:35 PM 52.5 °F - 11.1 °F 19% 30.34 in 10.0 mi North 12.7 mph 18.4 mph N/A   Clear
12:55 PM 53.6 °F - 9.3 °F 17% 30.33 in 10.0 mi NNW 18.4 mph 24.2 mph N/A   Clear
1:15 PM 53.1 °F - 9.9 °F 18% 30.32 in 10.0 mi North 16.1 mph 25.3 mph N/A   Clear
1:35 PM 53.2 °F - 9.0 °F 17% 30.31 in 10.0 mi NNW 16.1 mph 23.0 mph N/A   Clear
1:55 PM 54.1 °F - 8.1 °F 16% 30.30 in 10.0 mi North 15.0 mph 24.2 mph N/A   Clear
2:15 PM 54.5 °F - 7.7 °F 15% 30.30 in 10.0 mi NNW 17.3 mph 21.9 mph N/A   Clear
2:35 PM 54.1 °F - 7.9 °F 16% 30.30 in 10.0 mi North 15.0 mph 20.7 mph N/A   Clear
2:55 PM 54.5 °F - 7.7 °F 15% 30.30 in 10.0 mi NNW 15.0 mph 21.9 mph N/A   Clear
3:15 PM 54.0 °F - 8.4 °F 16% 30.30 in 10.0 mi NW 16.1 mph 25.3 mph N/A   Clear
3:35 PM 53.6 °F - 8.4 °F 16% 30.30 in 10.0 mi NW 11.5 mph 21.9 mph N/A   Clear
3:55 PM 53.4 °F - 9.5 °F 17% 30.30 in 10.0 mi NW 11.5 mph 17.3 mph N/A   Clear
4:15 PM 53.1 °F - 9.5 °F 17% 30.29 in 10.0 mi NNW 13.8 mph 20.7 mph N/A   Clear
4:35 PM 52.3 °F - 9.3 °F 18% 30.29 in 10.0 mi North 10.4 mph 18.4 mph N/A   Clear
4:55 PM 49.1 °F - 9.5 °F 20% 30.29 in 10.0 mi North 10.4 mph - N/A   Clear
5:15 PM 46.0 °F 41.9 °F 9.7 °F 23% 30.29 in 10.0 mi NNW 8.1 mph - N/A   Clear
5:35 PM 38.1 °F 32.9 °F 8.4 °F 29% 30.28 in 10.0 mi NW 6.9 mph - N/A   Clear
5:55 PM 36.3 °F 30.8 °F 8.4 °F 31% 30.28 in 10.0 mi NW 6.9 mph - N/A   Clear
6:15 PM 32.9 °F 26.7 °F 7.9 °F 35% 30.28 in 10.0 mi NW 6.9 mph - N/A   Clear
6:35 PM 34.0 °F 27.2 °F 8.1 °F 34% 30.29 in 10.0 mi NW 8.1 mph - N/A   Clear
6:55 PM 31.3 °F 25.6 °F 6.8 °F 36% 30.29 in 10.0 mi NNW 5.8 mph - N/A   Clear
7:15 PM 29.5 °F 24.5 °F 7.2 °F 39% 30.28 in 10.0 mi NNW 4.6 mph - N/A   Clear
7:35 PM 29.5 °F 24.5 °F 7.9 °F 40% 30.28 in 10.0 mi NW 4.6 mph - N/A   Clear
7:55 PM 29.7 °F 20.7 °F 8.8 °F 42% 30.29 in 10.0 mi NW 10.4 mph - N/A   Clear
8:15 PM 29.1 °F 21.3 °F 8.6 °F 42% 30.29 in 10.0 mi West 8.1 mph 16.1 mph N/A   Clear
8:35 PM 29.1 °F 19.4 °F 8.6 °F 42% 30.30 in 10.0 mi NW 11.5 mph 18.4 mph N/A   Clear
8:55 PM 26.1 °F 18.4 °F 7.3 °F 45% 30.29 in 10.0 mi NNW 6.9 mph - N/A   Clear
9:15 PM 25.7 °F 17.1 °F 7.5 °F 46% 30.30 in 10.0 mi NNW 8.1 mph - N/A   Clear
9:35 PM 22.5 °F 16.3 °F 6.8 °F 51% 30.30 in 10.0 mi NNW 4.6 mph - N/A   Clear
9:55 PM 17.6 °F 7.3 °F 5.0 °F 58% 30.30 in 10.0 mi North 8.1 mph - N/A   Clear
10:15 PM 20.7 °F 9.5 °F 6.3 °F 54% 30.30 in 10.0 mi NW 10.4 mph - N/A   Clear
10:35 PM 23.2 °F 15.0 °F 7.0 °F 50% 30.30 in 10.0 mi NW 6.9 mph - N/A   Clear
10:55 PM 21.9 °F 14.5 °F 6.3 °F 51% 30.29 in 10.0 mi NNW 5.8 mph - N/A   Clear
11:15 PM 24.6 °F 14.4 °F 7.3 °F 48% 30.29 in 10.0 mi NNW 10.4 mph - N/A   Clear
11:35 PM 22.1 °F 10.6 °F 6.3 °F 51% 30.29 in 10.0 mi NNW 11.5 mph - N/A   Clear
11:55 PM 24.1 °F 13.1 °F 6.1 °F 46% 30.29 in 10.0 mi NNW 11.5 mph - N/A   Clear